Location: Augustenthal
(51.7167°N, 10.2833°E)
Time: 20:35:59
(UTC+00:00)

Cosmos 1271 Rocket - Pass Details

Date: 18 May 2021
Orbit: 497 x 545 km, 81.2° (Epoch: 24 June)

Event Time Altitude Azimuth Distance (km) Brightness Sun altitude
Rises 20:17:24 0° 198° (SSW) 2,702 6.0 -8.7°
Reaches altitude 10° 20:19:34 10° 201° (SSW) 1,814 5.2 -8.9°
Maximum altitude 20:23:33 67° 285° (WNW) 598 3.2 -9.3°
Drops below altitude 10° 20:27:33 10° 8° (N) 1,819 6.1 -9.7°
Sets 20:29:44 0° 11° (N) 2,711 7.0 -9.9°
